User: anonymous   Login
Location: Chenango Forks
(42.2242°N, 75.8278°W)
Time: 17:13:50
(UTC-05:00)
Language:

Coronas F rocket - Orbit

View from above orbital plane
View from above orbital plane
View from above satellite
View from above satellite

Ground track
Ground track

The orbit data is extracted from the following two-line orbital elements,

1 26874U 01032B   16337.15092970  .00045021 -41606-6  13154-3 0  9999
2 26874  82.4562  96.5451 0004434 278.7104  81.3667 15.92591978862261
Epoch (UTC): 02 December 2016 03:37:20
Eccentricity: 0.0004434
inclination: 82.4562°
perigee height: 292 km
apogee height: 298 km
right ascension of ascending node: 96.5451°
argument of perigee: 278.7104°
revolutions per day: 15.92591978
mean anomaly at epoch: 81.3667°
orbit number at epoch: 86226

The dashed part of the orbit path shows where the satellite is in the earth's shadow,  

DLR